Hermiston, OR

9:58 AM PDT on April 27, 2017 (GMT -0700)
Hermiston Municipal

Weather History for KHRI - August, 2014

Change the Weather History Date:

Saturday, August 2, 2014

  Actual Average Record
Temperature  
Mean Temperature 80 °F 75 °F  
Max Temperature 97 °F 92 °F 108 °F (2009)
Min Temperature 64 °F 58 °F 43 °F (2002)
Cooling Degree Days 16    
Growing Degree Days 30 (Base 50)    
Moisture  
Dew Point 56 °F    
Average Humidity 41    
Maximum Humidity 68    
Minimum Humidity 24    
Precipitation  
Precipitation 0.00 in 0.00 in 0.03 in (1976)
Month to date precipitation 0.01  
Year to date precipitation 6.30  
Sea Level Pressure  
Sea Level Pressure 29.84 in    
Wind  
Wind Speed 6 mph (North)    
Max Wind Speed 14 mph    
Max Gust Speed 23 mph    
Visibility 10 miles    
Events Rain , Thunderstorm    
T = Trace of Precipitation, MM = Missing Value Source: NWS Daily Summary

Daily Weather History Graph

Daily Weather History Graph

Search for Another Location

Airport or City:

Trip Planner

Search our weather history database for the weather conditions in past years. The results will help you decide how hot, cold, wet, or windy it might be!

Date:

Astronomy

Aug. 02, 2014 Rise Set
Actual Time 5:41 AM PDT 8:24 PM PDT
Civil Twilight 5:06 AM PDT 8:58 PM PDT
Nautical Twilight 4:23 AM PDT 9:41 PM PDT
Astronomical Twilight 3:32 AM PDT 10:31 PM PDT
Moon 12:30 PM PDT (8/2) 11:22 PM PDT (8/2)
Length of Visible Light 15h 51m
Length of Day
14h 43m
Waxing Crescent, 38% of the Moon is Illuminated
Aug 2
Waxing Crescent
Aug 3
First Quarter
Aug 10
Full
Aug 17
Last Quarter
Aug 25
New

Hourly Weather History & Observations

Time (PDT) Temp. Heat Index Dew Point Humidity Pressure Visibility Wind Dir Wind Speed Gust Speed Precip Events Conditions
1:53 AM 73.9 °F - 55.0 °F 52% 29.83 in 10.0 mi ESE 4.6 mph - N/A   Clear
2:53 AM 70.0 °F - 54.0 °F 57% 29.83 in 10.0 mi East 3.5 mph - N/A   Clear
3:53 AM 68.0 °F - 55.0 °F 63% 29.83 in 10.0 mi SW 4.6 mph - N/A   Clear
4:53 AM 68.0 °F - 57.0 °F 68% 29.83 in 10.0 mi SSW 4.6 mph - N/A   Clear
5:53 AM 64.9 °F - 54.0 °F 68% 29.86 in 10.0 mi South 4.6 mph - N/A   Clear
6:53 AM 69.1 °F - 55.9 °F 63% 29.88 in 10.0 mi ENE 4.6 mph - N/A   Clear
7:53 AM 78.1 °F - 53.1 °F 42% 29.89 in 10.0 mi NE 3.5 mph - N/A   Clear
8:53 AM 81.0 °F 80.8 °F 55.9 °F 42% 29.89 in 10.0 mi NNE 4.6 mph - N/A   Clear
9:53 AM 84.9 °F 83.6 °F 55.0 °F 36% 29.88 in 10.0 mi NW 5.8 mph - N/A   Clear
10:53 AM 87.1 °F 85.1 °F 54.0 °F 32% 29.87 in 10.0 mi West 8.1 mph - N/A   Clear
11:53 AM 87.1 °F 86.1 °F 57.9 °F 37% 29.87 in 10.0 mi WNW 4.6 mph - N/A   Clear
12:53 PM 91.0 °F 90.2 °F 59.0 °F 34% 29.86 in 10.0 mi NW 11.5 mph - N/A   Clear
1:53 PM 87.1 °F 85.7 °F 55.9 °F 35% 29.85 in 10.0 mi NNW 6.9 mph - N/A   Clear
2:53 PM 95.0 °F 93.4 °F 55.9 °F 27% 29.81 in 10.0 mi NNE 6.9 mph - N/A   Clear
3:53 PM 97.0 °F 95.0 °F 55.0 °F 24% 29.80 in 10.0 mi Variable 5.8 mph - N/A   Clear
4:53 PM 93.0 °F 91.1 °F 55.0 °F 28% 29.80 in 10.0 mi NNW 5.8 mph - N/A   Clear
5:53 PM 93.9 °F 92.0 °F 55.0 °F 27% 29.79 in 10.0 mi WNW 4.6 mph - N/A   Clear
6:53 PM 91.9 °F 89.5 °F 54.0 °F 27% 29.79 in 10.0 mi NNW 4.6 mph - N/A   Clear
7:53 PM 89.1 °F 87.3 °F 55.9 °F 32% 29.80 in 10.0 mi North 6.9 mph - N/A   Clear
8:53 PM 86.0 °F 84.9 °F 57.0 °F 37% 29.83 in 10.0 mi North 5.8 mph - N/A   Clear
9:07 PM 86.0 °F 84.9 °F 57.0 °F 37% 29.86 in 10.0 mi NNW 3.5 mph - N/A Thunderstorm Clear
9:34 PM 82.9 °F 82.8 °F 59.0 °F 44% 29.86 in 10.0 mi NNE 13.8 mph 23.0 mph 0.00 in Rain , Thunderstorm Light Rain
9:49 PM 82.4 °F 82.0 °F 57.2 °F 42% 29.87 in 10.0 mi NNE 8.1 mph - 0.00 in   Partly Cloudy
9:53 PM 82.9 °F 82.4 °F 57.0 °F 41% 29.85 in 10.0 mi NNE 9.2 mph - 0.00 in   Partly Cloudy
10:53 PM 81.0 °F 80.5 °F 54.0 °F 39% 29.86 in 10.0 mi NE 12.7 mph - N/A   Clear
11:53 PM 78.1 °F - 54.0 °F 43% 29.88 in 10.0 mi ENE 3.5 mph - N/A   Clear